{"data":{"norad_id":60014,"intl_designator":"2024-110C","name":"2024-110C","alt_names":[],"object_type":"PAYLOAD","status":"ACTIVE","operator":null,"country":"PRC","launch_date":"2024-06-06","launch_site_code":"JSC","launch_vehicle":null,"mission":null,"orbit_class":"UNKNOWN","rcs_meters":null,"size_class":null,"mass_kg":null,"dimensions":null,"purposes":[],"wikipedia_slug":null,"has_3d_model":false,"image_url":null,"decayed_at":null,"tle_current":{"epoch":"2026-08-24T07:03:18.574272Z","epoch_age_seconds":2629217,"freshness":"OLD","line1":"1 60014U 24110C   26236.29396498  .00001738  00000+0  15034-3 0  9992","line2":"2 60014  97.5420 309.3147 0009309 280.0498  79.9675 14.98408334112000","mean_motion":14.98408334,"eccentricity":0.0009309,"inclination_deg":97.542,"raan_deg":309.3147,"arg_perigee_deg":280.0498,"mean_anomaly_deg":79.9675,"bstar":0.00015034,"rev_number":11200,"period_min":96.10197483058,"perigee_km":565.3439509951,"apogee_km":578.283369134,"semimajor_km":6949.9506600645,"source":"CELESTRAK","updated_at":"2026-09-22T09:00:27.524829Z"}}}